Location: *
(40.7873°S, 98.7174°E)
Time: 06:33:14
(UTC+00:00)

Cosmos 1939 Rocket - Visible Passes

Search period start: 06 October 2022 00:00
Search period end: 16 October 2022 00:00
Orbit: 530 x 578 km, 97.4° (Epoch: 05 October)

Date Brightness Start Highest point End Pass type
(mag) Time Alt. Az. Time Alt. Az. Time Alt. Az.
06 Oct 6.2 21:03:09 10° E 21:05:18 15° ESE 21:07:28 10° SSE visible
07 Oct 6.3 21:00:24 10° E 21:02:20 14° ESE 21:04:18 10° SE visible
08 Oct 6.3 20:57:40 10° E 20:59:23 13° ESE 21:01:06 10° SE visible
09 Oct 6.4 20:55:01 10° E 20:56:26 12° ESE 20:57:51 10° SE visible
10 Oct 6.5 20:52:26 10° E 20:53:28 11° ESE 20:54:30 10° SE visible
11 Oct 6.6 20:50:11 10° ESE 20:50:29 10° ESE 20:50:48 10° ESE visible
